| time (UTC) | temp F | wind direction | speed knots | gust knots | rain 1hr in | rain 24hr in | rain mn in | humidity % | barometer mb |
| 20260510032640 | 79 | 0 | 8.7 | 13.0 | 0.00 | 0.01 | 0.00 | 58 | 1005.6 |
| 20260510032134 | 79 | 0 | 8.7 | 13.0 | 0.00 | 0.01 | 0.00 | 58 | 1005.5 |
| 20260510031640 | 80 | 0 | 8.7 | 13.0 | 0.00 | 0.02 | 0.00 | 57 | 1005.5 |
| 20260510031122 | 80 | 0 | 9.6 | 13.0 | 0.00 | 0.02 | 0.00 | 57 | 1005.4 |
| 20260510030618 | 80 | 0 | 8.7 | 12.2 | 0.00 | 0.02 | 0.00 | 57 | 1005.4 |
| 20260510030119 | 80 | 0 | 8.7 | 13.9 | 0.00 | 0.02 | 0.00 | 56 | 1005.2 |
| 20260510025617 | 81 | 0 | 8.7 | 13.9 | 0.00 | 0.02 | 0.00 | 56 | 1005.2 |
| 20260510025116 | 81 | 0 | 8.7 | 13.9 | 0.00 | 0.02 | 0.00 | 55 | 1005.0 |
| 20260510024617 | 81 | 0 | 8.7 | 13.9 | 0.00 | 0.02 | 0.00 | 55 | 1005.0 |
| 20260510024115 | 81 | 0 | 9.6 | 14.8 | 0.00 | 0.02 | 0.00 | 54 | 1004.8 |
| 20260510023617 | 82 | 0 | 10.4 | 15.6 | 0.00 | 0.02 | 0.00 | 54 | 1004.8 |
| 20260510023116 | 82 | 0 | 10.4 | 18.2 | 0.00 | 0.02 | 0.00 | 54 | 1004.7 |
| 20260510022110 | 82 | 0 | 10.4 | 16.5 | 0.00 | 0.02 | 0.00 | 54 | 1004.5 |
| 20260510021612 | 82 | 0 | 10.4 | 16.5 | 0.00 | 0.02 | 0.00 | 53 | 1004.4 |
| 20260510020610 | 83 | 0 | 12.2 | 22.6 | 0.00 | 0.02 | 0.00 | 53 | 1004.2 |
| 20260510020113 | 83 | 0 | 11.3 | 22.6 | 0.00 | 0.02 | 0.00 | 53 | 1004.1 |
| 20260510015609 | 83 | 0 | 11.3 | 16.5 | 0.00 | 0.02 | 0.00 | 52 | 1004.0 |
| 20260510014610 | 83 | 0 | 12.2 | 18.2 | 0.00 | 0.02 | 0.00 | 51 | 1003.7 |
| 20260510014106 | 84 | 0 | 12.2 | 19.1 | 0.00 | 0.02 | 0.00 | 51 | 1003.7 |
| 20260510013609 | 84 | 0 | 13.0 | 19.1 | 0.00 | 0.02 | 0.00 | 50 | 1003.6 |
| 20260510012556 | 85 | 0 | 13.0 | 20.9 | 0.00 | 0.02 | 0.00 | 49 | 1003.6 |
| 20260510012050 | 85 | 0 | 13.0 | 20.9 | 0.00 | 0.02 | 0.00 | 48 | 1003.7 |
| 20260510011543 | 85 | 0 | 13.0 | 20.0 | 0.00 | 0.02 | 0.00 | 48 | 1003.6 |
| 20260510011037 | 85 | 0 | 13.9 | 21.7 | 0.00 | 0.02 | 0.00 | 47 | 1003.6 |
| 20260510010532 | 85 | 0 | 13.0 | 21.7 | 0.00 | 0.02 | 0.00 | 47 | 1003.5 |
| 20260510010030 | 86 | 0 | 13.0 | 20.0 | 0.00 | 0.02 | 0.00 | 47 | 1003.6 |
| 20260510005527 | 86 | 0 | 13.9 | 20.0 | 0.00 | 0.02 | 0.00 | 46 | 1003.6 |
| 20260510004526 | 86 | 0 | 14.8 | 25.2 | 0.00 | 0.02 | 0.00 | 46 | 1003.7 |
| 20260510003528 | 87 | 0 | 14.8 | 25.2 | 0.00 | 0.02 | 0.00 | 45 | 1003.5 |
| 20260510003026 | 87 | 0 | 14.8 | 25.2 | 0.00 | 0.02 | 0.00 | 45 | 1003.6 |
| 20260510002526 | 87 | 0 | 14.8 | 22.6 | 0.00 | 0.02 | 0.00 | 46 | 1003.7 |
| 20260510002027 | 87 | 0 | 14.8 | 22.6 | 0.00 | 0.02 | 0.00 | 46 | 1003.6 |
| 20260510001540 | 87 | 0 | 13.9 | 22.6 | 0.00 | 0.02 | 0.00 | 46 | 1003.5 |
| 20260510001022 | 87 | 0 | 13.9 | 22.6 | 0.00 | 0.02 | 0.00 | 45 | 1003.6 |
| 20260510000524 | 87 | 0 | 14.8 | 22.6 | 0.00 | 0.02 | 0.00 | 44 | 1003.7 |
| 20260510000022 | 88 | 0 | 14.8 | 21.7 | 0.00 | 0.02 | 0.00 | 44 | 1003.7 |
| 20260509235522 | 88 | 0 | 15.6 | 25.2 | 0.00 | 0.02 | 0.00 | 44 | 1003.7 |
| 20260509235023 | 89 | 0 | 16.5 | 25.2 | 0.00 | 0.02 | 0.00 | 44 | 1003.8 |
| 20260509234525 | 89 | 0 | 15.6 | 23.5 | 0.00 | 0.02 | 0.00 | 43 | 1003.7 |
| 20260509234025 | 89 | 0 | 14.8 | 22.6 | 0.00 | 0.02 | 0.00 | 43 | 1004.0 |
| 20260509233024 | 89 | 0 | 13.9 | 21.7 | 0.00 | 0.02 | 0.00 | 44 | 1004.1 |
| 20260509232522 | 88 | 0 | 14.8 | 21.7 | 0.00 | 0.02 | 0.00 | 45 | 1004.1 |
| 20260509232022 | 88 | 0 | 13.9 | 19.1 | 0.00 | 0.02 | 0.00 | 46 | 1004.3 |
| 20260509231522 | 87 | 0 | 13.0 | 19.1 | 0.00 | 0.02 | 0.00 | 46 | 1004.5 |
| 20260509231022 | 87 | 111 | 13.0 | 20.0 | 0.00 | 0.02 | 0.00 | 47 | 1004.7 |
| 20260509230022 | 87 | 0 | 11.3 | 18.2 | 0.00 | 0.02 | 0.00 | 44 | 1004.9 |
| 20260509225522 | 88 | 0 | 11.3 | 17.4 | 0.00 | 0.02 | 0.00 | 44 | 1004.8 |
| 20260509224522 | 89 | 0 | 11.3 | 15.6 | 0.00 | 0.02 | 0.00 | 43 | 1004.7 |
| 20260509223523 | 89 | 0 | 13.0 | 20.9 | 0.00 | 0.02 | 0.00 | 42 | 1004.4 |
| 20260509223022 | 89 | 0 | 13.9 | 21.7 | 0.00 | 0.02 | 0.00 | 42 | 1004.5 |
| 20260509222521 | 90 | 0 | 13.9 | 21.7 | 0.00 | 0.02 | 0.00 | 41 | 1004.5 |
| 20260509222020 | 90 | 0 | 14.8 | 22.6 | 0.00 | 0.02 | 0.00 | 41 | 1004.6 |
| 20260509221533 | 91 | 0 | 15.6 | 22.6 | 0.00 | 0.02 | 0.00 | 40 | 1004.7 |
| 20260509221018 | 92 | 0 | 14.8 | 22.6 | 0.00 | 0.02 | 0.00 | 40 | 1004.6 |
| 20260509220020 | 92 | 0 | 13.0 | 20.9 | 0.00 | 0.02 | 0.00 | 40 | 1004.9 |
| 20260509215516 | 92 | 0 | 12.2 | 20.9 | 0.00 | 0.02 | 0.00 | 40 | 1004.9 |
| 20260509214516 | 92 | 0 | 12.2 | 19.1 | 0.00 | 0.02 | 0.00 | 41 | 1005.2 |
| 20260509214016 | 92 | 0 | 12.2 | 20.9 | 0.00 | 0.02 | 0.00 | 41 | 1005.3 |
| 20260509213516 | 92 | 0 | 11.3 | 20.9 | 0.00 | 0.02 | 0.00 | 40 | 1005.4 |
| 20260509212509 | 92 | 0 | 13.0 | 21.7 | 0.00 | 0.02 | 0.00 | 40 | 1005.5 |
| 20260509212009 | 92 | 0 | 13.0 | 20.9 | 0.00 | 0.02 | 0.00 | 39 | 1005.5 |
| 20260509211508 | 93 | 0 | 11.3 | 18.2 | 0.00 | 0.02 | 0.00 | 39 | 1005.7 |
| 20260509211008 | 93 | 0 | 11.3 | 18.2 | 0.00 | 0.02 | 0.00 | 39 | 1005.7 |
| 20260509210508 | 93 | 0 | 11.3 | 19.1 | 0.00 | 0.02 | 0.00 | 39 | 1005.7 |
| 20260509210009 | 93 | 0 | 11.3 | 19.1 | 0.00 | 0.02 | 0.00 | 39 | 1005.9 |
| 20260509205508 | 93 | 0 | 11.3 | 16.5 | 0.00 | 0.02 | 0.00 | 39 | 1006.0 |
| 20260509205008 | 93 | 0 | 10.4 | 16.5 | 0.00 | 0.02 | 0.00 | 39 | 1006.1 |
| 20260509204507 | 93 | 139 | 9.6 | 16.5 | 0.00 | 0.02 | 0.00 | 39 | 1006.1 |
| 20260509204009 | 93 | 119 | 8.7 | 16.5 | 0.00 | 0.02 | 0.00 | 39 | 1006.3 |
| 20260509203507 | 93 | 0 | 9.6 | 15.6 | 0.00 | 0.02 | 0.00 | 39 | 1006.4 |
| 20260509203004 | 93 | 123 | 9.6 | 15.6 | 0.00 | 0.02 | 0.00 | 39 | 1006.6 |
| 20260509202504 | 92 | 113 | 9.6 | 14.8 | 0.00 | 0.02 | 0.00 | 40 | 1006.7 |
| 20260509202004 | 92 | 0 | 8.7 | 14.8 | 0.00 | 0.02 | 0.00 | 40 | 1006.8 |
| 20260509201504 | 92 | 0 | 8.7 | 13.9 | 0.00 | 0.02 | 0.00 | 40 | 1006.9 |
| 20260509201006 | 92 | 120 | 8.7 | 13.9 | 0.00 | 0.02 | 0.00 | 40 | 1007.0 |
| 20260509200505 | 92 | 0 | 8.7 | 13.9 | 0.00 | 0.02 | 0.00 | 40 | 1007.0 |
| 20260509195959 | 91 | 0 | 8.7 | 18.2 | 0.00 | 0.02 | 0.00 | 41 | 1007.1 |
| 20260509194948 | 91 | 158 | 7.8 | 15.6 | 0.00 | 0.02 | 0.00 | 42 | 1007.2 |
| 20260509193935 | 90 | 0 | 7.0 | 17.4 | 0.00 | 0.02 | 0.00 | 43 | 1007.4 |
| 20260509193430 | 90 | 0 | 7.0 | 13.9 | 0.00 | 0.02 | 0.00 | 43 | 1007.5 |
| 20260509192924 | 89 | 0 | 7.8 | 13.9 | 0.00 | 0.02 | 0.00 | 43 | 1007.6 |
| 20260509192418 | 89 | 0 | 7.0 | 13.9 | 0.00 | 0.02 | 0.00 | 43 | 1007.7 |
| 20260509191912 | 89 | 0 | 6.1 | 13.9 | 0.00 | 0.02 | 0.00 | 44 | 1007.8 |
| 20260509191406 | 88 | 0 | 6.1 | 11.3 | 0.00 | 0.02 | 0.00 | 45 | 1007.9 |
| 20260509190900 | 88 | 0 | 7.0 | 17.4 | 0.00 | 0.02 | 0.00 | 45 | 1008.0 |
| 20260509190354 | 88 | 0 | 7.8 | 17.4 | 0.00 | 0.02 | 0.00 | 45 | 1008.2 |
| 20260509185342 | 87 | 0 | 7.0 | 13.9 | 0.00 | 0.02 | 0.00 | 46 | 1008.3 |
| 20260509184835 | 87 | 0 | 6.1 | 11.3 | 0.00 | 0.02 | 0.00 | 46 | 1008.4 |
| 20260509184329 | 87 | 0 | 6.1 | 12.2 | 0.00 | 0.02 | 0.00 | 47 | 1008.4 |
| 20260509183824 | 87 | 186 | 7.0 | 13.0 | 0.00 | 0.02 | 0.00 | 47 | 1008.6 |
| 20260509182811 | 86 | 159 | 7.8 | 12.2 | 0.00 | 0.02 | 0.00 | 48 | 1008.9 |
| 20260509182307 | 86 | 0 | 6.1 | 12.2 | 0.00 | 0.02 | 0.00 | 49 | 1009.1 |
| 20260509181800 | 85 | 0 | 6.1 | 12.2 | 0.00 | 0.02 | 0.00 | 50 | 1009.2 |
| 20260509181255 | 85 | 240 | 6.1 | 12.2 | 0.00 | 0.02 | 0.00 | 49 | 1009.3 |
| 20260509180242 | 84 | 0 | 6.1 | 10.4 | 0.00 | 0.02 | 0.00 | 51 | 1009.5 |
| 20260509175736 | 84 | 0 | 6.1 | 10.4 | 0.00 | 0.02 | 0.00 | 52 | 1009.6 |
| 20260509175230 | 84 | 0 | 5.2 | 10.4 | 0.00 | 0.02 | 0.00 | 54 | 1009.6 |
| 20260509174724 | 83 | 0 | 4.3 | 10.4 | 0.00 | 0.02 | 0.00 | 54 | 1009.6 |
| 20260509174218 | 83 | 150 | 3.5 | 11.3 | 0.00 | 0.02 | 0.00 | 55 | 1009.7 |
| 20260509173712 | 83 | 0 | 5.2 | 11.3 | 0.00 | 0.02 | 0.00 | 55 | 1009.8 |
| 20260509173205 | 82 | 159 | 5.2 | 9.6 | 0.00 | 0.02 | 0.00 | 56 | 1009.9 |
| 20260509172659 | 82 | 161 | 5.2 | 13.0 | 0.00 | 0.02 | 0.00 | 57 | 1010.0 |
| 20260509172154 | 82 | 161 | 4.3 | 13.0 | 0.00 | 0.02 | 0.00 | 58 | 1010.1 |
| 20260509171700 | 81 | 0 | 4.3 | 12.2 | 0.00 | 0.02 | 0.00 | 59 | 1010.2 |
| 20260509171143 | 81 | 0 | 3.5 | 12.2 | 0.00 | 0.02 | 0.00 | 60 | 1010.2 |
| 20260509170636 | 80 | 152 | 3.5 | 9.6 | 0.00 | 0.02 | 0.00 | 62 | 1010.4 |
| 20260509170130 | 80 | 150 | 4.3 | 9.6 | 0.00 | 0.02 | 0.00 | 62 | 1010.5 |
| 20260509165623 | 79 | 137 | 3.5 | 8.7 | 0.00 | 0.02 | 0.00 | 63 | 1010.5 |
| 20260509165118 | 79 | 113 | 2.6 | 8.7 | 0.00 | 0.02 | 0.00 | 64 | 1010.6 |
| 20260509164611 | 78 | 0 | 2.6 | 8.7 | 0.00 | 0.02 | 0.00 | 65 | 1010.6 |
| 20260509164106 | 78 | 0 | 3.5 | 8.7 | 0.00 | 0.02 | 0.00 | 66 | 1010.7 |
| 20260509163605 | 78 | 0 | 2.6 | 8.7 | 0.00 | 0.02 | 0.00 | 67 | 1010.7 |
| 20260509163105 | 78 | 0 | 2.6 | 8.7 | 0.00 | 0.02 | 0.00 | 68 | 1010.8 |
| 20260509162605 | 77 | 0 | 3.5 | 10.4 | 0.00 | 0.02 | 0.00 | 69 | 1010.8 |
| 20260509162102 | 77 | 0 | 3.5 | 10.4 | 0.00 | 0.02 | 0.00 | 69 | 1010.9 |
| 20260509161601 | 76 | 0 | 3.5 | 7.8 | 0.00 | 0.02 | 0.00 | 70 | 1011.0 |
| 20260509161058 | 76 | 0 | 2.6 | 7.8 | 0.00 | 0.02 | 0.00 | 71 | 1011.0 |
| 20260509160101 | 75 | 158 | 2.6 | 7.8 | 0.00 | 0.02 | 0.00 | 73 | 1010.9 |
| 20260509155557 | 75 | 0 | 1.7 | 7.0 | 0.00 | 0.02 | 0.00 | 74 | 1010.9 |
| 20260509155058 | 74 | 0 | 2.6 | 7.0 | 0.00 | 0.02 | 0.00 | 75 | 1010.9 |
| 20260509154559 | 74 | 0 | 1.7 | 5.2 | 0.00 | 0.02 | 0.00 | 76 | 1010.9 |
| 20260509153558 | 73 | 142 | 2.6 | 7.0 | 0.00 | 0.02 | 0.00 | 77 | 1010.9 |
| 20260509153059 | 73 | 125 | 2.6 | 7.0 | 0.00 | 0.02 | 0.00 | 78 | 1010.9 |
| 20260509152558 | 73 | 0 | 2.6 | 6.1 | 0.00 | 0.02 | 0.00 | 80 | 1011.0 |
| 20260509152058 | 72 | 142 | 2.6 | 8.7 | 0.00 | 0.02 | 0.00 | 80 | 1011.0 |
| 20260509151057 | 72 | 159 | 2.6 | 7.8 | 0.00 | 0.02 | 0.00 | 82 | 1011.1 |
| 20260509150057 | 71 | 0 | 2.6 | 7.0 | 0.00 | 0.02 | 0.00 | 83 | 1011.1 |
| 20260509145538 | 71 | 128 | 3.5 | 7.8 | 0.00 | 0.02 | 0.00 | 83 | 1011.1 |
| 20260509145032 | 71 | 144 | 3.5 | 7.8 | 0.00 | 0.02 | 0.00 | 83 | 1011.1 |
| 20260509144533 | 70 | 160 | 1.7 | 6.1 | 0.00 | 0.02 | 0.00 | 84 | 1011.2 |
| 20260509144032 | 70 | 121 | 1.7 | 5.2 | 0.00 | 0.02 | 0.00 | 84 | 1011.2 |
| 20260509143532 | 69 | 117 | 1.7 | 6.1 | 0.00 | 0.02 | 0.00 | 84 | 1011.3 |
| 20260509142529 | 69 | 107 | 2.6 | 5.2 | 0.00 | 0.02 | 0.00 | 84 | 1011.4 |
| 20260509142028 | 69 | 126 | 2.6 | 5.2 | 0.00 | 0.02 | 0.00 | 84 | 1011.4 |
| 20260509141527 | 68 | 118 | 3.5 | 6.1 | 0.00 | 0.02 | 0.00 | 84 | 1011.4 |
| 20260509141029 | 68 | 103 | 1.7 | 6.1 | 0.00 | 0.02 | 0.00 | 84 | 1011.7 |
| 20260509140527 | 67 | 93 | 1.7 | 5.2 | 0.00 | 0.02 | 0.00 | 84 | 1011.7 |
| 20260509140027 | 67 | 121 | 1.7 | 5.2 | 0.00 | 0.02 | 0.00 | 84 | 1011.7 |
| 20260509135528 | 67 | 85 | 0.9 | 3.5 | 0.00 | 0.02 | 0.00 | 84 | 1011.7 |
| 20260509135029 | 66 | 65 | 0.0 | 1.7 | 0.00 | 0.02 | 0.00 | 84 | 1011.5 |
| 20260509134524 | 65 | 0 | 0.9 | 2.6 | 0.00 | 0.02 | 0.00 | 85 | 1011.5 |
| 20260509134024 | 65 | 65 | 0.0 | 3.5 | 0.00 | 0.02 | 0.00 | 84 | 1011.4 |
| 20260509133524 | 65 | 0 | 0.9 | 4.3 | 0.00 | 0.02 | 0.00 | 85 | 1011.4 |
| 20260509133025 | 64 | 65 | 2.6 | 4.3 | 0.00 | 0.02 | 0.00 | 85 | 1011.4 |
| 20260509132524 | 64 | 0 | 2.6 | 5.2 | 0.00 | 0.02 | 0.00 | 85 | 1011.3 |
| 20260509132023 | 64 | 0 | 1.7 | 5.2 | 0.00 | 0.02 | 0.00 | 85 | 1011.3 |
| 20260509131524 | 63 | 0 | 0.9 | 4.3 | 0.00 | 0.02 | 0.00 | 85 | 1011.2 |
| 20260509131024 | 62 | 5 | 0.9 | 3.5 | 0.00 | 0.02 | 0.00 | 85 | 1011.2 |
| 20260509130524 | 61 | 0 | 0.9 | 3.5 | 0.00 | 0.02 | 0.00 | 85 | 1011.2 |
| 20260509130020 | 61 | 0 | 0.9 | 3.5 | 0.00 | 0.02 | 0.00 | 84 | 1011.1 |
| 20260509125520 | 60 | 0 | 0.9 | 3.5 | 0.00 | 0.02 | 0.00 | 84 | 1010.9 |
| 20260509125019 | 60 | 85 | 0.0 | 2.6 | 0.00 | 0.02 | 0.00 | 84 | 1010.8 |
| 20260509124519 | 59 | 0 | 0.0 | 2.6 | 0.00 | 0.02 | 0.00 | 84 | 1010.8 |
| 20260509124020 | 59 | 0 | 0.0 | 2.6 | 0.00 | 0.02 | 0.00 | 84 | 1010.8 |
| 20260509123521 | 58 | 0 | 0.0 | 1.7 | 0.00 | 0.02 | 0.00 | 83 | 1010.7 |
| 20260509123020 | 58 | 0 | 0.0 | 1.7 | 0.00 | 0.02 | 0.00 | 83 | 1010.7 |
| 20260509122521 | 58 | 0 | 0.9 | 1.7 | 0.00 | 0.02 | 0.00 | 83 | 1010.7 |
| 20260509122018 | 58 | 0 | 0.0 | 2.6 | 0.00 | 0.02 | 0.00 | 83 | 1010.6 |
| 20260509121517 | 58 | 0 | 0.0 | 2.6 | 0.00 | 0.02 | 0.00 | 83 | 1010.6 |
| 20260509121012 | 58 | 0 | 0.0 | 0.9 | 0.00 | 0.02 | 0.00 | 83 | 1010.5 |
| 20260509120505 | 58 | 0 | 0.0 | 0.9 | 0.00 | 0.02 | 0.00 | 83 | 1010.6 |
| 20260509120000 | 58 | 0 | 0.0 | 0.0 | 0.00 | 0.02 | 0.00 | 82 | 1010.6 |
| 20260509114442 | 59 | 0 | 0.0 | 1.7 | 0.00 | 0.02 | 0.00 | 83 | 1010.5 |
| 20260509113935 | 59 | 0 | 0.0 | 1.7 | 0.00 | 0.02 | 0.00 | 83 | 1010.4 |
| 20260509112424 | 59 | 0 | 1.7 | 3.5 | 0.00 | 0.02 | 0.00 | 82 | 1010.4 |
| 20260509111923 | 59 | 0 | 0.9 | 2.6 | 0.00 | 0.02 | 0.00 | 82 | 1010.4 |
| 20260509111424 | 59 | 0 | 0.9 | 1.7 | 0.00 | 0.02 | 0.00 | 82 | 1010.3 |
| 20260509110924 | 59 | 0 | 0.0 | 1.7 | 0.00 | 0.02 | 0.00 | 82 | 1010.3 |
| 20260509110423 | 59 | 0 | 0.0 | 0.9 | 0.00 | 0.02 | 0.00 | 81 | 1010.2 |
| 20260509105924 | 59 | 0 | 0.0 | 1.7 | 0.00 | 0.02 | 0.00 | 81 | 1010.1 |
| 20260509105425 | 59 | 0 | 0.0 | 1.7 | 0.00 | 0.02 | 0.00 | 81 | 1010.1 |
| 20260509104923 | 59 | 0 | 0.0 | 1.7 | 0.00 | 0.02 | 0.00 | 81 | 1010.1 |
| 20260509104421 | 59 | 0 | 0.0 | 0.9 | 0.00 | 0.02 | 0.00 | 81 | 1010.1 |
| 20260509103919 | 59 | 0 | 0.0 | 1.7 | 0.00 | 0.02 | 0.00 | 81 | 1010.0 |
| 20260509103420 | 59 | 0 | 0.0 | 2.6 | 0.00 | 0.02 | 0.00 | 81 | 1009.9 |
| 20260509102417 | 60 | 0 | 0.0 | 1.7 | 0.00 | 0.02 | 0.00 | 81 | 1009.8 |
| 20260509101917 | 60 | 0 | 0.9 | 3.5 | 0.00 | 0.02 | 0.00 | 81 | 1009.7 |
| 20260509101417 | 60 | 0 | 0.9 | 3.5 | 0.00 | 0.02 | 0.00 | 81 | 1009.6 |
| 20260509100916 | 60 | 0 | 0.0 | 1.7 | 0.00 | 0.02 | 0.00 | 80 | 1009.5 |
| 20260509095909 | 60 | 0 | 0.9 | 3.5 | 0.00 | 0.02 | 0.00 | 80 | 1009.1 |
| 20260509095403 | 60 | 0 | 0.9 | 4.3 | 0.00 | 0.02 | 0.00 | 80 | 1008.9 |
| 20260509094351 | 60 | 0 | 0.9 | 2.6 | 0.00 | 0.02 | 0.00 | 80 | 1008.7 |
| 20260509093845 | 60 | 0 | 0.9 | 2.6 | 0.00 | 0.02 | 0.00 | 79 | 1008.6 |
| 20260509093339 | 60 | 0 | 0.9 | 2.6 | 0.00 | 0.02 | 0.00 | 79 | 1008.7 |
| 20260509092834 | 60 | 0 | 0.9 | 2.6 | 0.00 | 0.02 | 0.00 | 78 | 1008.7 |
| 20260509091822 | 60 | 0 | 0.0 | 0.9 | 0.00 | 0.02 | 0.00 | 79 | 1008.8 |
| 20260509091316 | 61 | 0 | 0.0 | 0.9 | 0.00 | 0.02 | 0.00 | 78 | 1008.8 |
| 20260509090304 | 61 | 0 | 0.0 | 0.0 | 0.00 | 0.02 | 0.00 | 79 | 1008.9 |
| 20260509085757 | 61 | 0 | 0.0 | 0.0 | 0.00 | 0.02 | 0.00 | 79 | 1008.9 |
| 20260509085252 | 62 | 0 | 0.0 | 0.0 | 0.00 | 0.02 | 0.00 | 79 | 1008.9 |
| 20260509084746 | 62 | 0 | 0.0 | 0.9 | 0.00 | 0.02 | 0.00 | 79 | 1009.1 |
| 20260509084240 | 62 | 0 | 0.0 | 2.6 | 0.00 | 0.02 | 0.00 | 79 | 1009.1 |
| 20260509083733 | 62 | 0 | 0.9 | 2.6 | 0.00 | 0.02 | 0.00 | 80 | 1009.2 |
| 20260509082722 | 62 | 0 | 0.9 | 2.6 | 0.00 | 0.02 | 0.00 | 79 | 1009.2 |
| 20260509082215 | 62 | 0 | 0.9 | 2.6 | 0.00 | 0.02 | 0.00 | 79 | 1009.3 |
| 20260509081710 | 62 | 0 | 1.7 | 3.5 | 0.00 | 0.02 | 0.00 | 78 | 1009.3 |
| 20260509081204 | 62 | 0 | 1.7 | 3.5 | 0.00 | 0.02 | 0.00 | 78 | 1009.4 |
| 20260509080657 | 62 | 0 | 0.9 | 3.5 | 0.00 | 0.02 | 0.00 | 78 | 1009.5 |
| 20260509080151 | 62 | 0 | 0.9 | 3.5 | 0.00 | 0.02 | 0.00 | 77 | 1009.5 |
| 20260509075645 | 62 | 0 | 0.9 | 3.5 | 0.00 | 0.02 | 0.00 | 77 | 1009.6 |
| 20260509075140 | 63 | 0 | 0.0 | 2.6 | 0.00 | 0.02 | 0.00 | 77 | 1009.6 |
| 20260509074633 | 63 | 0 | 0.0 | 0.9 | 0.00 | 0.02 | 0.00 | 77 | 1009.7 |
| 20260509074128 | 63 | 0 | 0.0 | 0.9 | 0.00 | 0.02 | 0.00 | 77 | 1009.7 |
| 20260509073621 | 63 | 0 | 0.0 | 1.7 | 0.00 | 0.02 | 0.00 | 77 | 1009.8 |
| 20260509073115 | 63 | 0 | 0.9 | 3.5 | 0.00 | 0.02 | 0.00 | 77 | 1009.8 |
| 20260509072609 | 63 | 0 | 1.7 | 4.3 | 0.00 | 0.02 | 0.00 | 77 | 1009.9 |
| 20260509072105 | 64 | 0 | 2.6 | 5.2 | 0.00 | 0.02 | 0.00 | 77 | 1010.0 |
| 20260509071051 | 64 | 0 | 2.6 | 5.2 | 0.00 | 0.02 | 0.00 | 76 | 1009.9 |
| 20260509070545 | 64 | 0 | 3.5 | 7.0 | 0.00 | 0.02 | 0.00 | 76 | 1010.1 |
| 20260509065534 | 64 | 0 | 2.6 | 5.2 | 0.00 | 0.02 | 0.00 | 76 | 1009.9 |
| 20260509065027 | 65 | 0 | 2.6 | 4.3 | 0.00 | 0.02 | 0.00 | 76 | 1009.9 |
| 20260509064522 | 65 | 0 | 1.7 | 5.2 | 0.00 | 0.02 | 0.00 | 76 | 1009.9 |
| 20260509063010 | 66 | 0 | 0.0 | 0.0 | 0.00 | 0.02 | 0.00 | 76 | 1009.6 |
| 20260509062006 | 66 | 0 | 0.0 | 0.0 | 0.00 | 0.02 | 0.00 | 76 | 1009.7 |
| 20260509061502 | 66 | 24 | 0.0 | 0.0 | 0.00 | 0.02 | 0.00 | 76 | 1009.9 |
| 20260509061001 | 67 | 0 | 0.0 | 0.0 | 0.00 | 0.02 | 0.00 | 76 | 1010.0 |
| 20260509060458 | 67 | 0 | 0.0 | 0.0 | 0.00 | 0.02 | 0.00 | 76 | 1009.9 |
| 20260509055958 | 67 | 43 | 0.9 | 2.6 | 0.00 | 0.02 | 0.00 | 76 | 1009.9 |
| 20260509054958 | 68 | 0 | 2.6 | 4.3 | 0.00 | 0.02 | 0.00 | 77 | 1009.9 |
| 20260509054458 | 68 | 41 | 1.7 | 4.3 | 0.00 | 0.02 | 0.00 | 77 | 1010.0 |
| 20260509053956 | 68 | 33 | 1.7 | 3.5 | 0.00 | 0.02 | 0.00 | 77 | 1010.0 |
| 20260509053456 | 68 | 0 | 2.6 | 4.3 | 0.00 | 0.02 | 0.00 | 77 | 1009.9 |
| 20260509052956 | 68 | 34 | 3.5 | 7.0 | 0.00 | 0.02 | 0.00 | 77 | 1009.9 |
| 20260509051953 | 69 | 34 | 2.6 | 7.0 | 0.00 | 0.02 | 0.00 | 77 | 1010.0 |
| 20260509050953 | 69 | 36 | 3.5 | 7.8 | 0.00 | 0.02 | 0.00 | 77 | 1009.7 |
| 20260509045955 | 69 | 33 | 8.7 | 13.9 | 0.00 | 0.02 | 0.00 | 78 | 1009.9 |
| 20260509044953 | 69 | 0 | 10.4 | 18.2 | 0.00 | 0.02 | 0.00 | 77 | 1009.8 |
| 20260509044453 | 70 | 37 | 11.3 | 18.2 | 0.00 | 0.02 | 0.00 | 76 | 1009.8 |
| 20260509043451 | 71 | 40 | 12.2 | 23.5 | 0.00 | 0.02 | 0.00 | 74 | 1009.8 |
| 20260509042453 | 72 | 31 | 11.3 | 20.9 | 0.01 | 0.02 | 0.00 | 73 | 1010.1 |
| 20260509041953 | 73 | 30 | 11.3 | 18.2 | 0.01 | 0.02 | 0.00 | 72 | 1009.8 |
| 20260509041449 | 74 | 31 | 8.7 | 18.2 | 0.02 | 0.02 | 0.00 | 72 | 1009.5 |
| 20260509040449 | 75 | 25 | 3.5 | 7.0 | 0.02 | 0.02 | 0.00 | 69 | 1008.9 |
| 20260509035944 | 75 | 19 | 1.7 | 4.3 | 0.02 | 0.02 | 0.02 | 67 | 1008.8 |
| 20260509035437 | 75 | 0 | 0.9 | 2.6 | 0.02 | 0.02 | 0.02 | 65 | 1008.7 |
| 20260509034932 | 76 | 14 | 0.9 | 2.6 | 0.02 | 0.02 | 0.02 | 63 | 1008.7 |
| 20260509034426 | 76 | 10 | 0.0 | 2.6 | 0.02 | 0.02 | 0.02 | 63 | 1008.8 |